Location: Newark
(44.3248°N, 23.7839°E)
Time: 04:20:32
(UTC+00:00)

Gurwin Techsat 1B - Visible Passes

Search period start: 16 April 2024 00:00
Search period end: 26 April 2024 00:00
Orbit: 811 x 813 km, 98.9° (Epoch: 15 April)

Date Brightness Start Highest point End Pass type
(mag) Time Alt. Az. Time Alt. Az. Time Alt. Az.
16 Apr 8.9 01:52:18 10° NNE 01:57:38 68° ESE 02:02:43 11° S visible
17 Apr 9.7 01:29:18 10° NNE 01:34:22 42° E 01:39:21 10° S visible
18 Apr 10.4 01:06:33 10° NE 01:11:00 27° E 01:15:26 10° SSE visible
18 Apr 9.1 02:46:01 10° N 02:51:01 43° WNW 02:56:01 10° SW visible
19 Apr 11.0 00:44:13 10° NE 00:47:34 17° E 00:50:54 10° SE visible
19 Apr 8.6 02:22:38 10° N 02:27:57 68° WNW 02:33:12 10° SSW visible
20 Apr 8.7 01:59:25 10° NNE 02:04:46 77° ESE 02:10:05 10° S visible
21 Apr 9.5 01:36:21 10° NNE 01:41:31 48° E 01:46:38 10° S visible
22 Apr 10.2 01:13:31 10° NE 01:18:11 30° E 01:22:49 10° SSE visible
22 Apr 9.3 02:53:13 10° N 02:58:07 38° WNW 03:02:59 10° SW visible
23 Apr 10.9 00:51:01 10° NE 00:54:46 19° E 00:58:30 10° SE visible
23 Apr 8.7 02:29:48 10° N 02:35:02 60° WNW 02:40:15 10° SSW visible
24 Apr 11.3 00:29:31 10° ENE 00:31:16 11° E 00:33:00 10° ESE visible
24 Apr 8.6 02:06:32 10° NNE 02:11:53 87° ESE 02:17:13 10° SSW visible
25 Apr 9.2 01:43:25 10° NNE 01:48:40 55° E 01:53:52 10° S visible
